Year,Month,Day,Hour,Minute,Value (Times are PST for temperature in C)
2008,04,30,00,00,3.20
2008,04,30,00,01,3.20
2008,04,30,00,02,3.20
2008,04,30,00,03,3.20
2008,04,30,00,04,3.20
2008,04,30,00,05,3.20
2008,04,30,00,06,3.20
2008,04,30,00,07,3.20
2008,04,30,00,08,3.20
2008,04,30,00,09,3.20
2008,04,30,00,10,3.20
2008,04,30,00,11,3.10
2008,04,30,00,12,3.10
2008,04,30,00,13,3.10
2008,04,30,00,14,3.10
2008,04,30,00,15,3.10
2008,04,30,00,16,3.10
2008,04,30,00,17,3.10
2008,04,30,00,18,3.10
2008,04,30,00,19,3.10
2008,04,30,00,20,3.10
2008,04,30,00,21,3.10
2008,04,30,00,22,3.10
2008,04,30,00,23,3.10
2008,04,30,00,24,3.10
2008,04,30,00,25,3.10
2008,04,30,00,26,3.10
2008,04,30,00,27,3.10
2008,04,30,00,28,3.00
2008,04,30,00,29,3.00
2008,04,30,00,30,3.00
2008,04,30,00,31,3.00
2008,04,30,00,32,3.00
2008,04,30,00,33,3.00
2008,04,30,00,34,3.00
2008,04,30,00,35,3.00
2008,04,30,00,36,3.00
2008,04,30,00,37,3.00
2008,04,30,00,38,3.00
2008,04,30,00,39,3.00
2008,04,30,00,40,3.00
2008,04,30,00,41,3.00
2008,04,30,00,42,3.00
2008,04,30,00,43,3.00
2008,04,30,00,44,3.00
2008,04,30,00,45,3.00
2008,04,30,00,46,3.00
2008,04,30,00,47,2.90
2008,04,30,00,48,2.90
2008,04,30,00,49,2.90
2008,04,30,00,50,2.90
2008,04,30,00,51,2.90
2008,04,30,00,52,2.90
2008,04,30,00,53,2.90
2008,04,30,00,54,2.90
2008,04,30,00,55,2.90
2008,04,30,00,56,2.90
2008,04,30,00,57,2.90
2008,04,30,00,58,2.90
2008,04,30,00,59,2.90
2008,04,30,01,00,2.80
2008,04,30,01,01,2.80
2008,04,30,01,02,2.80
2008,04,30,01,03,2.80
2008,04,30,01,04,2.80
2008,04,30,01,05,2.80
2008,04,30,01,06,2.80
2008,04,30,01,07,2.80
2008,04,30,01,08,2.80
2008,04,30,01,09,2.80
2008,04,30,01,10,2.80
2008,04,30,01,11,2.80
2008,04,30,01,12,2.80
2008,04,30,01,13,2.80
2008,04,30,01,14,2.80
2008,04,30,01,15,2.80
2008,04,30,01,16,2.80
2008,04,30,01,17,2.80
2008,04,30,01,18,2.80
2008,04,30,01,19,2.80
2008,04,30,01,20,2.80
2008,04,30,01,21,2.80
2008,04,30,01,22,2.80
2008,04,30,01,23,2.80
2008,04,30,01,24,2.80
2008,04,30,01,25,2.80
2008,04,30,01,26,2.80
2008,04,30,01,27,2.80
2008,04,30,01,28,2.70
2008,04,30,01,29,2.70
2008,04,30,01,30,2.70
2008,04,30,01,31,2.70
2008,04,30,01,32,2.70
2008,04,30,01,33,2.70
2008,04,30,01,34,2.70
2008,04,30,01,35,2.70
2008,04,30,01,36,2.70
2008,04,30,01,37,2.70
2008,04,30,01,38,2.70
2008,04,30,01,39,2.70
2008,04,30,01,40,2.70
2008,04,30,01,41,2.70
2008,04,30,01,42,2.70
2008,04,30,01,43,2.70
2008,04,30,01,44,2.70
2008,04,30,01,45,2.70
2008,04,30,01,46,2.70
2008,04,30,01,47,2.70
2008,04,30,01,48,2.70
2008,04,30,01,49,2.70
2008,04,30,01,50,2.70
2008,04,30,01,51,2.70
2008,04,30,01,52,2.70
2008,04,30,01,53,2.70
2008,04,30,01,54,2.70
2008,04,30,01,55,2.70
2008,04,30,01,56,2.70
2008,04,30,01,57,2.70
2008,04,30,01,58,2.70
2008,04,30,01,59,2.70
2008,04,30,02,00,2.70
2008,04,30,02,01,2.70
2008,04,30,02,02,2.70
2008,04,30,02,03,2.70
2008,04,30,02,04,2.70
2008,04,30,02,05,2.70
2008,04,30,02,06,2.70
2008,04,30,02,07,2.70
2008,04,30,02,08,2.70
2008,04,30,02,09,2.70
2008,04,30,02,10,2.70
2008,04,30,02,11,2.70
2008,04,30,02,12,2.70
2008,04,30,02,13,2.70
2008,04,30,02,14,2.70
2008,04,30,02,15,2.70
2008,04,30,02,16,2.70
2008,04,30,02,17,2.70
2008,04,30,02,18,2.70
2008,04,30,02,19,2.70
2008,04,30,02,20,2.70
2008,04,30,02,21,2.70
2008,04,30,02,22,2.70
2008,04,30,02,23,2.70
2008,04,30,02,24,2.70
2008,04,30,02,25,2.70
2008,04,30,02,26,2.70
2008,04,30,02,27,2.70
2008,04,30,02,28,2.70
2008,04,30,02,29,2.70
2008,04,30,02,30,2.70
2008,04,30,02,31,2.70
2008,04,30,02,32,2.70
2008,04,30,02,33,2.70
2008,04,30,02,34,2.70
2008,04,30,02,35,2.70
2008,04,30,02,36,2.60
2008,04,30,02,37,2.60
2008,04,30,02,38,2.60
2008,04,30,02,39,2.60
2008,04,30,02,40,2.60
2008,04,30,02,41,2.60
2008,04,30,02,42,2.60
2008,04,30,02,43,2.60
2008,04,30,02,44,2.60
2008,04,30,02,45,2.60
2008,04,30,02,46,2.60
2008,04,30,02,47,2.60
2008,04,30,02,48,2.70
2008,04,30,02,49,2.70
2008,04,30,02,50,2.70
2008,04,30,02,51,2.70
2008,04,30,02,52,2.70
2008,04,30,02,53,2.70
2008,04,30,02,54,2.70
2008,04,30,02,55,2.70
2008,04,30,02,56,2.70
2008,04,30,02,57,2.70
2008,04,30,02,58,2.80
2008,04,30,02,59,2.80
2008,04,30,03,00,2.80
2008,04,30,03,01,2.80
2008,04,30,03,02,2.80
2008,04,30,03,03,2.80
2008,04,30,03,04,2.80
2008,04,30,03,05,2.80
2008,04,30,03,06,2.80
2008,04,30,03,07,2.80
2008,04,30,03,08,2.80
2008,04,30,03,09,2.80
2008,04,30,03,10,2.80
2008,04,30,03,11,2.80
2008,04,30,03,12,2.80
2008,04,30,03,13,2.80
2008,04,30,03,14,2.80
2008,04,30,03,15,2.80
2008,04,30,03,16,2.80
2008,04,30,03,17,2.80
2008,04,30,03,18,2.80
2008,04,30,03,19,2.80
2008,04,30,03,20,2.80
2008,04,30,03,21,2.80
2008,04,30,03,22,2.80
2008,04,30,03,23,2.80
2008,04,30,03,24,2.80
2008,04,30,03,25,2.80
2008,04,30,03,26,2.80
2008,04,30,03,27,2.80
2008,04,30,03,28,2.80
2008,04,30,03,29,2.80
2008,04,30,03,30,2.80
2008,04,30,03,31,2.80
2008,04,30,03,32,2.80
2008,04,30,03,33,2.80
2008,04,30,03,34,2.80
2008,04,30,03,35,2.80
2008,04,30,03,36,2.80
2008,04,30,03,37,2.80
2008,04,30,03,38,2.80
2008,04,30,03,39,2.80
2008,04,30,03,40,2.80
2008,04,30,03,41,2.90
2008,04,30,03,42,2.90
2008,04,30,03,43,2.90
2008,04,30,03,44,2.90
2008,04,30,03,45,2.90
2008,04,30,03,46,2.90
2008,04,30,03,47,2.90
2008,04,30,03,48,2.90
2008,04,30,03,49,2.90
2008,04,30,03,50,3.00
2008,04,30,03,51,3.00
2008,04,30,03,52,3.00
2008,04,30,03,53,3.00
2008,04,30,03,54,3.00
2008,04,30,03,55,3.00
2008,04,30,03,56,3.00
2008,04,30,03,57,3.00
2008,04,30,03,58,3.10
2008,04,30,03,59,3.10
2008,04,30,04,00,3.10
2008,04,30,04,01,3.10
2008,04,30,04,02,3.10
2008,04,30,04,03,3.10
2008,04,30,04,04,3.10
2008,04,30,04,05,3.10
2008,04,30,04,06,3.10
2008,04,30,04,07,3.10
2008,04,30,04,08,3.10
2008,04,30,04,09,3.10
2008,04,30,04,10,3.10
2008,04,30,04,11,3.10
2008,04,30,04,12,3.10
2008,04,30,04,13,3.10
2008,04,30,04,14,3.10
2008,04,30,04,15,3.10
2008,04,30,04,16,3.10
2008,04,30,04,17,3.10
2008,04,30,04,18,3.10
2008,04,30,04,19,3.10
2008,04,30,04,20,3.10
2008,04,30,04,21,3.10
2008,04,30,04,22,3.10
2008,04,30,04,23,3.10
2008,04,30,04,24,3.10
2008,04,30,04,25,3.10
2008,04,30,04,26,3.10
2008,04,30,04,27,3.10
2008,04,30,04,28,3.10
2008,04,30,04,29,3.10
2008,04,30,04,30,3.10
2008,04,30,04,31,3.10
2008,04,30,04,32,3.10
2008,04,30,04,33,3.10
2008,04,30,04,34,3.10
2008,04,30,04,35,3.10
2008,04,30,04,36,3.10
2008,04,30,04,37,3.10
2008,04,30,04,38,3.10
2008,04,30,04,39,3.10
2008,04,30,04,40,3.10
2008,04,30,04,41,3.10
2008,04,30,04,42,3.10
2008,04,30,04,43,3.10
2008,04,30,04,44,3.10
2008,04,30,04,45,3.10
2008,04,30,04,46,3.10
2008,04,30,04,47,3.10
2008,04,30,04,48,3.10
2008,04,30,04,49,3.10
2008,04,30,04,50,3.10
2008,04,30,04,51,3.10
2008,04,30,04,52,3.10
2008,04,30,04,53,3.10
2008,04,30,04,54,3.10
2008,04,30,04,55,3.20
2008,04,30,04,56,3.20
2008,04,30,04,57,3.20
2008,04,30,04,58,3.20
2008,04,30,04,59,3.20
2008,04,30,05,00,3.20
2008,04,30,05,01,3.20
2008,04,30,05,02,3.20
2008,04,30,05,03,3.20
2008,04,30,05,04,3.20
2008,04,30,05,05,3.20
2008,04,30,05,06,3.20
2008,04,30,05,07,3.20
2008,04,30,05,08,3.20
2008,04,30,05,09,3.20
2008,04,30,05,10,3.20
2008,04,30,05,11,3.20
2008,04,30,05,12,3.20
2008,04,30,05,13,3.20
2008,04,30,05,14,3.20
2008,04,30,05,15,3.20
2008,04,30,05,16,3.20
2008,04,30,05,17,3.20
2008,04,30,05,18,3.20
2008,04,30,05,19,3.20
2008,04,30,05,20,3.20
2008,04,30,05,21,3.20
2008,04,30,05,22,3.20
2008,04,30,05,23,3.20
2008,04,30,05,24,3.20
2008,04,30,05,25,3.20
2008,04,30,05,26,3.20
2008,04,30,05,27,3.20
2008,04,30,05,28,3.20
2008,04,30,05,29,3.20
2008,04,30,05,30,3.20
2008,04,30,05,31,3.20
2008,04,30,05,32,3.20
2008,04,30,05,33,3.20
2008,04,30,05,34,3.20
2008,04,30,05,35,3.20
2008,04,30,05,36,3.20
2008,04,30,05,37,3.20
2008,04,30,05,38,3.20
2008,04,30,05,39,3.20
2008,04,30,05,40,3.20
2008,04,30,05,41,3.20
2008,04,30,05,42,3.20
2008,04,30,05,43,3.10
2008,04,30,05,44,3.10
2008,04,30,05,45,3.10
2008,04,30,05,46,3.10
2008,04,30,05,47,3.10
2008,04,30,05,48,3.10
2008,04,30,05,49,3.10
2008,04,30,05,50,3.10
2008,04,30,05,51,3.10
2008,04,30,05,52,3.10
2008,04,30,05,53,3.10
2008,04,30,05,54,3.10
2008,04,30,05,55,3.10
2008,04,30,05,56,3.00
2008,04,30,05,57,3.00
2008,04,30,05,58,3.00
2008,04,30,05,59,3.00
2008,04,30,06,00,3.00
2008,04,30,06,01,3.00
2008,04,30,06,02,3.00
2008,04,30,06,03,3.00
2008,04,30,06,04,3.00
2008,04,30,06,05,3.00
2008,04,30,06,06,2.90
2008,04,30,06,07,2.90
2008,04,30,06,08,2.90
2008,04,30,06,09,2.90
2008,04,30,06,10,2.90
2008,04,30,06,11,2.90
2008,04,30,06,12,2.90
2008,04,30,06,13,2.90
2008,04,30,06,14,2.90
2008,04,30,06,15,2.90
2008,04,30,06,16,2.90
2008,04,30,06,17,2.90
2008,04,30,06,18,2.90
2008,04,30,06,19,2.90
2008,04,30,06,20,2.90
2008,04,30,06,21,2.90
2008,04,30,06,22,2.90
2008,04,30,06,23,2.90
2008,04,30,06,24,2.90
2008,04,30,06,25,2.90
2008,04,30,06,26,2.90
2008,04,30,06,27,2.90
2008,04,30,06,28,2.90
2008,04,30,06,29,2.90
2008,04,30,06,30,2.90
2008,04,30,06,31,3.00
2008,04,30,06,32,3.00
2008,04,30,06,33,3.00
2008,04,30,06,34,3.10
2008,04,30,06,35,3.10
2008,04,30,06,36,3.10
2008,04,30,06,37,3.20
2008,04,30,06,38,3.20
2008,04,30,06,39,3.20
2008,04,30,06,40,3.20
2008,04,30,06,41,3.30
2008,04,30,06,42,3.30
2008,04,30,06,43,3.30
2008,04,30,06,44,3.30
2008,04,30,06,45,3.40
2008,04,30,06,46,3.40
2008,04,30,06,47,3.40
2008,04,30,06,48,3.40
2008,04,30,06,49,3.40
2008,04,30,06,50,3.40
2008,04,30,06,51,3.50
2008,04,30,06,52,3.50
2008,04,30,06,53,3.50
2008,04,30,06,54,3.50
2008,04,30,06,55,3.50
2008,04,30,06,56,3.50
2008,04,30,06,57,3.50
2008,04,30,06,58,3.50
2008,04,30,06,59,3.50
2008,04,30,07,00,3.60
2008,04,30,07,01,3.60
2008,04,30,07,02,3.60
2008,04,30,07,03,3.60
2008,04,30,07,04,3.60
2008,04,30,07,05,3.60
2008,04,30,07,06,3.60
2008,04,30,07,07,3.70
2008,04,30,07,08,3.70
2008,04,30,07,09,3.70
2008,04,30,07,10,3.70
2008,04,30,07,11,3.70
2008,04,30,07,12,3.70
2008,04,30,07,13,3.70
2008,04,30,07,14,3.70
2008,04,30,07,15,3.70
2008,04,30,07,16,3.70
2008,04,30,07,17,3.70
2008,04,30,07,18,3.70
2008,04,30,07,19,3.70
2008,04,30,07,20,3.70
2008,04,30,07,21,3.70
2008,04,30,07,22,3.70
2008,04,30,07,23,3.80
2008,04,30,07,24,3.80
2008,04,30,07,25,3.80
2008,04,30,07,26,3.80
2008,04,30,07,27,3.80
2008,04,30,07,28,3.80
2008,04,30,07,29,3.80
2008,04,30,07,30,3.90
2008,04,30,07,31,3.90
2008,04,30,07,32,4.00
2008,04,30,07,33,4.00
2008,04,30,07,34,4.00
2008,04,30,07,35,4.10
2008,04,30,07,36,4.10
2008,04,30,07,37,4.10
2008,04,30,07,38,4.10
2008,04,30,07,39,4.10
2008,04,30,07,40,4.10
2008,04,30,07,41,4.10
2008,04,30,07,42,4.20
2008,04,30,07,43,4.20
2008,04,30,07,44,4.20
2008,04,30,07,45,4.20
2008,04,30,07,46,4.20
2008,04,30,07,47,4.20
2008,04,30,07,48,4.20
2008,04,30,07,49,4.20
2008,04,30,07,50,4.30
2008,04,30,07,51,4.30
2008,04,30,07,52,4.30
2008,04,30,07,53,4.40
2008,04,30,07,54,4.40
2008,04,30,07,55,4.50
2008,04,30,07,56,4.50
2008,04,30,07,57,4.60
2008,04,30,07,58,4.60
2008,04,30,07,59,4.70
2008,04,30,08,00,4.70
2008,04,30,08,01,4.70
2008,04,30,08,02,4.80
2008,04,30,08,03,4.80
2008,04,30,08,04,4.90
2008,04,30,08,05,4.90
2008,04,30,08,06,5.00
2008,04,30,08,07,5.10
2008,04,30,08,08,5.10
2008,04,30,08,09,5.20
2008,04,30,08,10,5.20
2008,04,30,08,11,5.20
2008,04,30,08,12,5.30
2008,04,30,08,13,5.30
2008,04,30,08,14,5.30
2008,04,30,08,15,5.40
2008,04,30,08,16,5.40
2008,04,30,08,17,5.50
2008,04,30,08,18,5.60
2008,04,30,08,19,5.60
2008,04,30,08,20,5.60
2008,04,30,08,21,5.60
2008,04,30,08,22,5.70
2008,04,30,08,23,5.70
2008,04,30,08,24,5.80
2008,04,30,08,25,5.80
2008,04,30,08,26,5.80
2008,04,30,08,27,5.80
2008,04,30,08,28,5.80
2008,04,30,08,29,5.90
2008,04,30,08,30,5.90
2008,04,30,08,31,5.90
2008,04,30,08,32,5.90
2008,04,30,08,33,5.90
2008,04,30,08,34,6.00
2008,04,30,08,35,6.00
2008,04,30,08,36,6.10
2008,04,30,08,37,6.10
2008,04,30,08,38,6.10
2008,04,30,08,39,6.10
2008,04,30,08,40,6.10
2008,04,30,08,41,6.20
2008,04,30,08,42,6.20
2008,04,30,08,43,6.20
2008,04,30,08,44,6.20
2008,04,30,08,45,6.30
2008,04,30,08,46,6.30
2008,04,30,08,47,6.30
2008,04,30,08,48,6.30
2008,04,30,08,49,6.30
2008,04,30,08,50,6.30
2008,04,30,08,51,6.30
2008,04,30,08,52,6.30
2008,04,30,08,53,6.30
2008,04,30,08,54,6.40
2008,04,30,08,55,6.40
2008,04,30,08,56,6.40
2008,04,30,08,57,6.40
2008,04,30,08,58,6.50
2008,04,30,08,59,6.50
2008,04,30,09,01,6.60
2008,04,30,09,02,6.60
2008,04,30,09,03,6.60
2008,04,30,09,04,6.60
2008,04,30,09,05,6.60
2008,04,30,09,06,6.70
2008,04,30,09,07,6.70
2008,04,30,09,08,6.70
2008,04,30,09,09,6.70
2008,04,30,09,10,6.70
2008,04,30,09,11,6.80
2008,04,30,09,12,6.80
2008,04,30,09,13,6.80
2008,04,30,09,14,6.80
2008,04,30,09,15,6.90
2008,04,30,09,16,6.90
2008,04,30,09,17,6.90
2008,04,30,09,18,6.90
2008,04,30,09,19,6.90
2008,04,30,09,20,6.90
2008,04,30,09,21,6.90
2008,04,30,09,22,6.90
2008,04,30,09,23,6.90
2008,04,30,09,24,6.90
2008,04,30,09,25,6.90
2008,04,30,09,26,6.90
2008,04,30,09,27,6.90
2008,04,30,09,28,7.00
2008,04,30,09,29,7.00
2008,04,30,09,30,7.10
2008,04,30,09,31,7.20
2008,04,30,09,32,7.20
2008,04,30,09,33,7.20
2008,04,30,09,34,7.30
2008,04,30,09,35,7.40
2008,04,30,09,36,7.50
2008,04,30,09,37,7.50
2008,04,30,09,38,7.60
2008,04,30,09,39,7.70
2008,04,30,09,40,7.70
2008,04,30,09,41,7.70
2008,04,30,09,42,7.70
2008,04,30,09,43,7.70
2008,04,30,09,44,7.70
2008,04,30,09,45,7.70
2008,04,30,09,46,7.70
2008,04,30,09,47,7.70
2008,04,30,09,48,7.70
2008,04,30,09,49,7.70
2008,04,30,09,50,7.70
2008,04,30,09,51,7.80
2008,04,30,09,52,7.80
2008,04,30,09,53,7.80
2008,04,30,09,54,7.80
2008,04,30,09,55,7.80
2008,04,30,09,56,7.80
2008,04,30,09,57,7.90
2008,04,30,09,58,8.00
2008,04,30,09,59,8.00
2008,04,30,10,00,8.10
2008,04,30,10,01,8.10
2008,04,30,10,02,8.10
2008,04,30,10,03,8.20
2008,04,30,10,04,8.20
2008,04,30,10,05,8.20
2008,04,30,10,06,8.30
2008,04,30,10,07,8.30
2008,04,30,10,08,8.30
2008,04,30,10,09,8.40
2008,04,30,10,10,8.40
2008,04,30,10,11,8.40
2008,04,30,10,12,8.40
2008,04,30,10,13,8.50
2008,04,30,10,14,8.50
2008,04,30,10,15,8.60
2008,04,30,10,16,8.70
2008,04,30,10,17,8.70
2008,04,30,10,18,8.70
2008,04,30,10,19,8.80
2008,04,30,10,20,8.90
2008,04,30,10,21,8.90
2008,04,30,10,22,9.00
2008,04,30,10,23,9.00
2008,04,30,10,24,9.00
2008,04,30,10,25,9.10
2008,04,30,10,26,9.10
2008,04,30,10,27,9.10
2008,04,30,10,28,9.20
2008,04,30,10,29,9.20
2008,04,30,10,30,9.20
2008,04,30,10,31,9.20
2008,04,30,10,32,9.30
2008,04,30,10,33,9.30
2008,04,30,10,34,9.30
2008,04,30,10,35,9.40
2008,04,30,10,36,9.40
2008,04,30,10,37,9.40
2008,04,30,10,38,9.40
2008,04,30,10,39,9.40
2008,04,30,10,40,9.40
2008,04,30,10,41,9.40
2008,04,30,10,42,9.40
2008,04,30,10,43,9.40
2008,04,30,10,44,9.50
2008,04,30,10,45,9.50
2008,04,30,10,46,9.50
2008,04,30,10,47,9.50
2008,04,30,10,48,9.60
2008,04,30,10,49,9.60
2008,04,30,10,50,9.70
2008,04,30,10,51,9.70
2008,04,30,10,52,9.70
2008,04,30,10,53,9.70
2008,04,30,10,54,9.80
2008,04,30,10,55,9.80
2008,04,30,10,56,9.80
2008,04,30,10,57,9.90
2008,04,30,10,58,9.90
2008,04,30,10,59,9.90
2008,04,30,11,00,9.80
2008,04,30,11,01,9.80
2008,04,30,11,02,9.80
2008,04,30,11,03,9.80
2008,04,30,11,04,9.80
2008,04,30,11,05,9.80
2008,04,30,11,06,9.80
2008,04,30,11,07,9.90
2008,04,30,11,08,9.90
2008,04,30,11,09,10.00
2008,04,30,11,10,10.10
2008,04,30,11,11,10.10
2008,04,30,11,12,10.10
2008,04,30,11,13,9.90
2008,04,30,11,14,9.90
2008,04,30,11,15,9.90
2008,04,30,11,16,9.90
2008,04,30,11,17,9.80
2008,04,30,11,18,9.70
2008,04,30,11,19,9.60
2008,04,30,11,20,9.60
2008,04,30,11,21,9.60
2008,04,30,11,22,9.60
2008,04,30,11,23,9.60
2008,04,30,11,24,9.60
2008,04,30,11,25,9.60
2008,04,30,11,26,9.70
2008,04,30,11,27,9.70
2008,04,30,11,28,9.60
2008,04,30,11,29,9.60
2008,04,30,11,30,9.50
2008,04,30,11,31,9.50
2008,04,30,11,32,9.50
2008,04,30,11,33,9.50
2008,04,30,11,34,9.60
2008,04,30,11,35,9.60
2008,04,30,11,36,9.60
2008,04,30,11,37,9.60
2008,04,30,11,38,9.60
2008,04,30,11,39,9.50
2008,04,30,11,40,9.40
2008,04,30,11,41,9.30
2008,04,30,11,42,9.30
2008,04,30,11,43,9.40
2008,04,30,11,44,9.40
2008,04,30,11,45,9.50
2008,04,30,11,46,9.50
2008,04,30,11,47,9.60
2008,04,30,11,48,9.60
2008,04,30,11,49,9.60
2008,04,30,11,50,9.60
2008,04,30,11,51,9.50
2008,04,30,11,52,9.50
2008,04,30,11,53,9.50
2008,04,30,11,54,9.50
2008,04,30,11,55,9.60
2008,04,30,11,56,9.80
2008,04,30,11,57,9.80
2008,04,30,11,58,9.90
2008,04,30,11,59,10.00
2008,04,30,12,00,10.10
2008,04,30,12,01,10.10
2008,04,30,12,02,10.20
2008,04,30,12,03,10.20
2008,04,30,12,04,10.20
2008,04,30,12,05,10.30
2008,04,30,12,06,10.30
2008,04,30,12,07,10.30
2008,04,30,12,08,10.30
2008,04,30,12,09,10.30
2008,04,30,12,10,10.30
2008,04,30,12,11,10.30
2008,04,30,12,12,10.30
2008,04,30,12,13,10.40
2008,04,30,12,14,10.50
2008,04,30,12,15,10.50
2008,04,30,12,16,10.60
2008,04,30,12,17,10.70
2008,04,30,12,18,10.70
2008,04,30,12,19,10.70
2008,04,30,12,20,10.80
2008,04,30,12,21,10.80
2008,04,30,12,22,10.80
2008,04,30,12,23,10.90
2008,04,30,12,24,10.90
2008,04,30,12,25,10.90
2008,04,30,12,26,10.90
2008,04,30,12,27,11.00
2008,04,30,12,28,11.00
2008,04,30,12,29,11.00
2008,04,30,12,30,11.00
2008,04,30,12,31,10.90
2008,04,30,12,32,10.90
2008,04,30,12,33,10.90
2008,04,30,12,34,10.90
2008,04,30,12,35,10.90
2008,04,30,12,36,10.90
2008,04,30,12,37,10.90
2008,04,30,12,38,10.90
2008,04,30,12,39,10.90
2008,04,30,12,40,11.00
2008,04,30,12,41,11.10
2008,04,30,12,42,11.10
2008,04,30,12,43,11.20
2008,04,30,12,44,11.30
2008,04,30,12,45,11.30
2008,04,30,12,46,11.30
2008,04,30,12,47,11.30
2008,04,30,12,48,11.30
2008,04,30,12,49,11.30
2008,04,30,12,50,11.40
2008,04,30,12,51,11.40
2008,04,30,12,52,11.50
2008,04,30,12,53,11.60
2008,04,30,12,54,11.70
2008,04,30,12,55,11.80
2008,04,30,12,56,11.80
2008,04,30,12,57,11.80
2008,04,30,12,58,11.90
2008,04,30,12,59,11.90
2008,04,30,13,00,11.90
2008,04,30,13,01,12.00
2008,04,30,13,02,12.10
2008,04,30,13,03,12.10
2008,04,30,13,04,12.10
2008,04,30,13,05,12.00
2008,04,30,13,06,11.80
2008,04,30,13,07,11.70
2008,04,30,13,08,11.60
2008,04,30,13,09,11.50
2008,04,30,13,10,11.40
2008,04,30,13,11,11.40
2008,04,30,13,12,11.40
2008,04,30,13,13,11.50
2008,04,30,13,14,11.50
2008,04,30,13,15,11.40
2008,04,30,13,16,11.50
2008,04,30,13,17,11.50
2008,04,30,13,18,11.60
2008,04,30,13,19,11.70
2008,04,30,13,20,11.80
2008,04,30,13,21,11.80
2008,04,30,13,22,11.80
2008,04,30,13,23,11.80
2008,04,30,13,24,11.80
2008,04,30,13,25,11.80
2008,04,30,13,26,11.80
2008,04,30,13,27,11.80
2008,04,30,13,28,11.80
2008,04,30,13,29,11.80
2008,04,30,13,30,11.80
2008,04,30,13,31,11.80
2008,04,30,13,32,11.80
2008,04,30,13,33,11.90
2008,04,30,13,34,11.90
2008,04,30,13,35,12.00
2008,04,30,13,36,12.10
2008,04,30,13,37,12.10
2008,04,30,13,38,12.10
2008,04,30,13,39,12.10
2008,04,30,13,40,12.10
2008,04,30,13,41,12.10
2008,04,30,13,42,12.10
2008,04,30,13,43,12.10
2008,04,30,13,44,12.20
2008,04,30,13,45,12.20
2008,04,30,13,46,12.20
2008,04,30,13,47,12.10
2008,04,30,13,48,12.00
2008,04,30,13,49,11.90
2008,04,30,13,50,11.70
2008,04,30,13,51,11.70
2008,04,30,13,52,11.60
2008,04,30,13,53,11.50
2008,04,30,13,54,11.30
2008,04,30,13,55,11.30
2008,04,30,13,56,11.20
2008,04,30,13,57,11.20
2008,04,30,13,58,11.20
2008,04,30,13,59,11.20
2008,04,30,14,00,11.20
2008,04,30,14,01,11.20
2008,04,30,14,02,11.30
2008,04,30,14,03,11.30
2008,04,30,14,04,11.40
2008,04,30,14,05,11.50
2008,04,30,14,06,11.50
2008,04,30,14,07,11.50
2008,04,30,14,08,11.50
2008,04,30,14,09,11.60
2008,04,30,14,10,11.60
2008,04,30,14,11,11.60
2008,04,30,14,12,11.50
2008,04,30,14,13,11.50
2008,04,30,14,14,11.40
2008,04,30,14,15,11.40
2008,04,30,14,16,11.40
2008,04,30,14,17,11.30
2008,04,30,14,18,11.40
2008,04,30,14,19,11.50
2008,04,30,14,20,11.60
2008,04,30,14,21,11.60
2008,04,30,14,22,11.60
2008,04,30,14,23,11.60
2008,04,30,14,24,11.60
2008,04,30,14,25,11.60
2008,04,30,14,26,11.60
2008,04,30,14,27,11.60
2008,04,30,14,28,11.60
2008,04,30,14,29,11.60
2008,04,30,14,30,11.60
2008,04,30,14,31,11.70
2008,04,30,14,32,11.80
2008,04,30,14,33,11.90
2008,04,30,14,34,12.00
2008,04,30,14,35,12.10
2008,04,30,14,36,12.10
2008,04,30,14,37,12.20
2008,04,30,14,38,12.20
2008,04,30,14,39,12.20
2008,04,30,14,40,12.10
2008,04,30,14,41,12.10
2008,04,30,14,42,12.00
2008,04,30,14,43,12.00
2008,04,30,14,44,12.00
2008,04,30,14,45,12.00
2008,04,30,14,46,12.00
2008,04,30,14,47,12.00
2008,04,30,14,48,12.00
2008,04,30,14,49,12.10
2008,04,30,14,50,12.10
2008,04,30,14,51,12.00
2008,04,30,14,52,11.90
2008,04,30,14,53,11.90
2008,04,30,14,54,11.90
2008,04,30,14,55,11.80
2008,04,30,14,56,11.70
2008,04,30,14,57,11.60
2008,04,30,14,58,11.60
2008,04,30,14,59,11.60
2008,04,30,15,00,11.60
2008,04,30,15,01,11.60
2008,04,30,15,02,11.60
2008,04,30,15,03,11.70
2008,04,30,15,04,11.70
2008,04,30,15,05,11.80
2008,04,30,15,06,11.90
2008,04,30,15,07,12.00
2008,04,30,15,08,12.10
2008,04,30,15,09,12.00
2008,04,30,15,10,12.00
2008,04,30,15,11,12.00
2008,04,30,15,12,12.10
2008,04,30,15,13,12.10
2008,04,30,15,14,12.10
2008,04,30,15,15,12.10
2008,04,30,15,16,12.10
2008,04,30,15,17,12.10
2008,04,30,15,18,12.00
2008,04,30,15,19,12.00
2008,04,30,15,20,12.00
2008,04,30,15,21,12.00
2008,04,30,15,22,12.00
2008,04,30,15,23,12.10
2008,04,30,15,24,12.10
2008,04,30,15,28,12.40
2008,04,30,15,29,12.50
2008,04,30,15,30,12.60
2008,04,30,15,31,12.60
2008,04,30,15,32,12.50
2008,04,30,15,33,12.40
2008,04,30,15,34,12.40
2008,04,30,15,35,12.30
2008,04,30,15,36,12.30
2008,04,30,15,37,12.30
2008,04,30,15,38,12.20
2008,04,30,15,39,12.20
2008,04,30,15,40,12.10
2008,04,30,15,41,12.10
2008,04,30,15,42,12.10
2008,04,30,15,43,12.20
2008,04,30,15,44,12.20
2008,04,30,15,45,12.20
2008,04,30,15,46,12.30
2008,04,30,15,47,12.40
2008,04,30,15,48,12.50
2008,04,30,15,49,12.50
2008,04,30,15,50,12.60
2008,04,30,15,51,12.60
2008,04,30,15,52,12.60
2008,04,30,15,53,12.70
2008,04,30,15,54,12.70
2008,04,30,15,55,12.70
2008,04,30,15,56,12.80
2008,04,30,15,57,12.80
2008,04,30,15,58,12.80
2008,04,30,15,59,12.80
2008,04,30,16,00,12.80
2008,04,30,16,01,12.80
2008,04,30,16,02,12.80
2008,04,30,16,03,12.80
2008,04,30,16,04,12.80
2008,04,30,16,05,12.70
2008,04,30,16,06,12.70
2008,04,30,16,07,12.70
2008,04,30,16,08,12.70
2008,04,30,16,09,12.70
2008,04,30,16,10,12.70
2008,04,30,16,11,12.70
2008,04,30,16,12,12.70
2008,04,30,16,13,12.80
2008,04,30,16,14,12.80
2008,04,30,16,15,12.80
2008,04,30,16,16,12.80
2008,04,30,16,17,12.80
2008,04,30,16,18,12.80
2008,04,30,16,19,12.70
2008,04,30,16,20,12.70
2008,04,30,16,21,12.70
2008,04,30,16,22,12.80
2008,04,30,16,23,12.80
2008,04,30,16,24,12.70
2008,04,30,16,25,12.70
2008,04,30,16,26,12.60
2008,04,30,16,27,12.60
2008,04,30,16,28,12.50
2008,04,30,16,29,12.50
2008,04,30,16,30,12.40
2008,04,30,16,31,12.40
2008,04,30,16,32,12.30
2008,04,30,16,33,12.30
2008,04,30,16,34,12.20
2008,04,30,16,35,12.20
2008,04,30,16,36,12.10
2008,04,30,16,37,12.00
2008,04,30,16,38,12.00
2008,04,30,16,39,11.90
2008,04,30,16,40,11.90
2008,04,30,16,41,11.90
2008,04,30,16,42,11.90
2008,04,30,16,43,11.80
2008,04,30,16,44,11.80
2008,04,30,16,45,11.80
2008,04,30,16,46,11.70
2008,04,30,16,47,11.70
2008,04,30,16,48,11.60
2008,04,30,16,49,11.60
2008,04,30,16,50,11.60
2008,04,30,16,51,11.60
2008,04,30,16,52,11.50
2008,04,30,16,53,11.50
2008,04,30,16,54,11.40
2008,04,30,16,55,11.40
2008,04,30,16,56,11.30
2008,04,30,16,57,11.30
2008,04,30,16,58,11.30
2008,04,30,16,59,11.20
2008,04,30,17,00,11.20
2008,04,30,17,01,11.10
2008,04,30,17,02,11.10
2008,04,30,17,03,11.00
2008,04,30,17,04,11.00
2008,04,30,17,05,10.90
2008,04,30,17,06,10.90
2008,04,30,17,07,10.90
2008,04,30,17,08,10.90
2008,04,30,17,09,10.90
2008,04,30,17,10,10.90
2008,04,30,17,11,10.90
2008,04,30,17,12,10.90
2008,04,30,17,13,10.80
2008,04,30,17,14,10.80
2008,04,30,17,15,10.80
2008,04,30,17,16,10.80
2008,04,30,17,17,10.80
2008,04,30,17,18,10.80
2008,04,30,17,19,10.80
2008,04,30,17,20,10.80
2008,04,30,17,21,10.80
2008,04,30,17,22,10.80
2008,04,30,17,23,10.80
2008,04,30,17,24,10.80
2008,04,30,17,25,10.80
2008,04,30,17,26,10.80
2008,04,30,17,27,10.80
2008,04,30,17,28,10.80
2008,04,30,17,29,10.80
2008,04,30,17,30,10.80
2008,04,30,17,31,10.90
2008,04,30,17,32,10.80
2008,04,30,17,33,10.90
2008,04,30,17,34,10.80
2008,04,30,17,35,10.80
2008,04,30,17,36,10.80
2008,04,30,17,37,10.80
2008,04,30,17,38,10.80
2008,04,30,17,39,10.80
2008,04,30,17,40,10.80
2008,04,30,17,41,10.80
2008,04,30,17,42,10.80
2008,04,30,17,43,10.80
2008,04,30,17,44,10.80
2008,04,30,17,45,10.80
2008,04,30,17,46,10.80
2008,04,30,17,47,10.80
2008,04,30,17,48,10.80
2008,04,30,17,49,10.80
2008,04,30,17,50,10.80
2008,04,30,17,51,10.80
2008,04,30,17,52,10.80
2008,04,30,17,53,10.80
2008,04,30,17,54,10.80